SCP
1 1 1 2 2 2 2 2 1 1 1 1 1 1 1 1 1 1 0 0 0 0 0 0 0 0 0 0 0 0 0 0 0 0 0 0 0 0 0 0 0 0 0
1 1 1 2 3 2 2 1 1 1 1 1 1 1 1 1 1 1 1 0 0 0 0 0 0 0 0 0 0 0 0 0 0 0 0 0 0 0 0 0 0 0 0
1 1 1 2 2 2 2 1 1 1 2 1 1 1 1 1 1 1 1 1 0 0 0 1 0 0 0 0 0 0 0 0 0 0 0 0 0 0 0 0 0 0 0
0 0 1 1 1 1 2 2 2 2 2 1 1 1 1 1 1 1 1 1 1 1 1 1 0 0 0 0 0 0 0 0 0 0 0 0 0 0 0 0 0 0 0
0 0 0 1 1 1 2 2 2 2 2 1 1 1 1 1 1 1 1 1 1 1 1 1 1 0 0 0 0 0 0 0 0 0 0 0 0 0 0 0 0 0 0
0 0 0 0 1 1 1 1 1 1 1 1 1 1 1 1 1 1 1 1 1 1 1 1 1 1 0 0 0 0 0 0 0 0 0 0 0 0 0 0 0 0 0
0 0 0 0 0 1 1 1 1 1 1 1 1 1 1 1 1 1 1 1 1 1 1 1 1 1 1 0 0 0 0 0 0 0 0 0 0 0 0 0 0 0 0
0 0 0 0 0 0 1 1 1 1 1 1 1 1 1 1 1 0 0 0 0 1 1 1 1 1 1 0 0 0 0 0 0 0 0 0 0 0 0 0 0 0 0
0 0 0 0 0 0 0 1 1 1 2 2 2 2 1 1 1 0 0 0 0 0 0 0 1 1 1 0 0 0 0 0 0 0 0 0 0 0 0 0 0 0 0
0 0 0 0 0 0 0 1 1 1 2 2 2 2 1 1 0 0 0 0 0 0 0 0 0 0 0 0 0 0 0 0 0 0 0 0 0 0 0 0 0 0 0
0 0 0 0 0 0 0 0 0 1 1 2 2 1 1 0 0 0 0 0 0 0 0 0 0 0 0 0 0 0 0 0 0 0 0 0 0 0 0 0 0 0 0
0 0 0 0 0 0 0 0 0 0 1 1 1 1 0 0 0 0 0 0 0 0 0 0 0 0 0 0 0 0 0 0 0 0 0 0 0 0 0 0 0 0 0
0 0 0 0 0 0 0 0 0 0 0 0 0 0 0 0 0 0 0 0 0 0 0 0 0 0 0 0 0 0 0 0 0 0 0 0 0 0 0 0 0 0 0
0 0 0 0 0 0 0 0 0 0 0 0 0 0 0 0 0 0 0 0 0 0 0 0 0 0 0 0 0 0 0 0 0 0 0 0 0 0 0 0 0 0 0
0 0 0 0 0 0 0 0 0 0 0 0 0 0 0 0 0 0 0 0 0 0 0 0 0 0 0 0 0 0 0 0 0 0 0 0 0 0 0 0 0 0 0
0 0 0 0 0 0 0 0 0 0 0 0 0 0 0 0 0 0 0 0 0 0 0 0 0 0 0 0 0 0 0 0 0 0 0 0 0 0 0 0 0 0 0
0 0 0 0 0 0 0 0 0 0 0 0 0 0 0 0 0 0 0 0 0 0 0 0 0 0 0 0 0 0 0 0 0 0 0 0 0 0 0 0 0 0 0
0 0 0 0 0 0 0 0 0 0 0 0 0 0 0 0 0 0 0 0 0 0 0 0 0 0 0 0 0 0 0 0 0 0 0 0 0 0 0 0 0 0 0
0 0 0 0 0 0 0 0 0 0 0 0 0 0 0 0 0 0 0 0 0 0 0 0 0 0 0 0 0 0 0 0 0 0 0 0 0 0 0 0 0 0 0
0 0 0 0 0 0 0 0 0 0 0 0 0 0 0 0 0 0 0 0 0 0 0 0 0 0 0 0 0 0 0 0 0 0 0 0 0 0 0 0 0 0 0
0 0 0 0 0 0 0 0 0 0 0 0 0 0 0 0 0 0 0 0 0 0 0 0 0 0 0 0 0 0 0 0 0 0 0 0 0 0 0 0 0 0 0
0 0 0 0 0 0 0 0 0 0 0 0 0 0 0 0 0 0 0 0 0 0 0 0 0 0 0 0 0 0 0 0 0 0 0 0 0 0 0 0 0 0 0
0 0 0 0 0 0 0 0 0 0 0 0 0 0 0 0 0 0 0 0 0 0 0 0 0 0 0 0 0 0 0 0 0 0 0 0 0 0 0 0 0 0 0
0 0 0 0 0 0 0 0 0 0 0 0 0 0 0 0 0 0 0 0 0 0 0 0 0 0 0 0 0 0 0 0 0 0 0 0 0 0 0 0 0 0 0
0 0 0 0 0 0 0 0 0 0 0 0 0 0 0 0 0 0 0 0 0 0 0 0 0 0 0 0 0 0 0 0 0 0 0 0 0 0 0 0 0 0 0
0 0 0 0 0 0 0 0 0 0 0 0 0 0 0 0 0 0 0 0 0 0 0 0 0 0 0 0 0 0 0 0 0 0 0 0 0 0 0 0 0 0 0
Wind_Speed
4 3 5 6 7 7 8 9 9 9 7 5 5 5 5 4 4 4 5 6 6 6 6 4 4 4 3 3 3 2 2 1 0 0 2 2 2 2 3 3 3 4 4
5 4 4 5 7 9 9 10 11 10 9 7 6 4 4 3 3 3 4 5 6 6 5 5 4 4 3 3 3 2 2 1 1 1 1 3 3 2 3 4 4 4 4
7 5 4 5 6 8 9 9 10 9 9 8 4 3 3 2 2 3 3 4 5 5 5 6 5 4 4 4 3 3 3 2 1 1 2 1 2 2 1 3 4 4 4
6 6 5 5 6 7 7 7 8 9 9 9 7 7 6 6 6 5 4 4 4 5 5 5 5 4 3 3 3 3 2 2 2 1 1 2 2 2 2 1 2 3 4
6 6 6 5 4 5 5 6 6 8 9 9 10 9 7 5 4 5 5 4 3 3 4 4 4 4 3 3 3 3 2 2 2 2 1 1 1 3 3 3 1 1 2
5 5 4 3 3 3 4 4 6 6 7 9 9 10 9 8 7 7 7 5 3 3 3 4 4 4 3 3 3 2 3 2 2 1 1 2 2 2 2 3 2 1 1
4 3 3 3 3 3 3 4 5 5 6 7 7 8 8 9 9 8 7 6 4 3 4 4 4 3 3 3 3 3 2 2 2 1 1 1 1 1 1 2 2 1 1
2 3 2 2 2 2 2 3 4 4 4 5 5 5 6 5 5 6 6 6 5 4 5 5 5 4 4 4 3 3 2 2 2 1 1 1 0 0 1 1 1 2 1
2 2 2 1 2 2 2 2 3 3 3 4 4 4 5 5 6 6 6 5 5 5 6 6 5 5 4 4 4 3 2 2 2 1 1 1 0 0 0 0 1 2 2
3 3 2 2 1 1 1 1 2 2 2 3 3 3 4 5 6 6 7 7 6 7 7 6 5 5 4 4 4 3 3 3 2 1 2 1 0 0 1 0 1 1 2
3 3 3 2 2 1 1 1 2 2 2 3 4 5 5 5 6 6 6 7 6 7 7 6 6 5 4 3 3 3 3 4 3 2 2 1 1 1 1 1 0 0 1
4 3 3 3 3 2 1 1 1 2 2 3 4 5 5 5 6 6 6 6 6 6 6 6 6 5 4 4 4 4 3 3 3 2 2 1 1 1 1 1 1 1 1
5 4 4 4 3 2 2 1 0 1 2 3 4 5 5 6 6 6 6 6 6 6 6 6 6 5 4 4 4 4 3 3 3 3 3 2 2 1 0 1 0 1 1
5 5 5 4 3 3 2 1 1 1 2 3 4 5 5 5 6 6 6 6 7 6 5 5 5 5 4 4 4 4 4 4 3 3 2 2 2 2 1 0 0 0 0
7 6 5 5 4 4 3 2 1 0 2 3 4 4 4 5 6 6 6 6 6 6 6 5 5 4 4 4 5 4 4 4 3 2 2 1 2 2 2 1 1 1 1
6 6 6 5 5 4 3 3 2 1 1 3 3 4 5 5 6 6 6 6 5 5 5 5 5 4 3 6 8 6 4 4 4 3 2 1 1 1 1 2 1 2 2
6 6 5 5 5 4 3 2 2 1 1 3 3 4 5 5 5 6 6 6 5 5 5 5 5 4 4 7 7 8 5 4 4 4 3 1 1 2 2 3 5 4 3
6 6 6 6 5 4 3 2 2 1 1 2 3 4 5 5 5 6 6 5 4 5 4 5 5 4 4 7 7 8 5 4 3 3 3 3 2 2 3 2 2 2 3
5 5 5 5 5 4 3 2 2 1 1 2 3 4 5 6 6 6 6 5 5 4 4 4 5 5 4 7 8 8 4 3 3 3 3 4 3 5 5 4 3 1 2
5 5 5 5 5 4 2 2 2 1 2 3 3 3 4 6 7 7 5 4 4 5 5 4 4 5 5 7 9 9 4 4 3 2 3 5 6 7 7 5 4 3 1
6 6 5 5 5 4 2 2 3 3 3 2 2 2 4 5 5 5 4 5 5 5 4 4 4 5 6 7 10 10 5 4 4 3 3 4 8 8 8 7 5 5 4
7 6 6 6 5 4 3 3 4 4 2 1 2 2 3 3 4 5 5 5 6 6 5 4 4 3 5 7 9 12 11 8 5 4 4 5 9 9 8 6 7 8 5
7 6 6 6 6 5 3 4 5 3 2 1 2 2 2 3 4 5 6 5 5 5 5 5 5 4 4 6 12 13 13 13 7 5 8 8 10 9 6 8 9 6 4
7 6 6 6 6 5 5 4 4 3 2 2 2 2 2 3 3 4 5 5 6 6 5 6 5 4 4 5 5 5 6 10 8 5 7 10 9 7 6 5 4 3 4
6 6 6 6 6 6 5 5 4 3 2 2 2 2 2 3 4 4 5 6 6 7 7 6 6 6 6 8 12 8 6 5 5 5 3 3 2 3 3 3 3 3 3
6 6 6 6 6 6 6 5 4 3 2 2 2 2 2 2 3 3 3 6 6 9 10 9 8 7 9 8 11 14 14 14 13 7 4 5 5 5 5 5 4 4 5
Wind_Direction
253 221 203 190 186 189 195 199 202 205 194 187 188 185 190 183 182 185 184 181 178 174 172 170 163 159 163 169 167 161 172 207 188 330 323 324 350 27 23 17 24 28 32
258 237 216 202 196 193 195 199 203 204 200 199 193 185 174 173 175 177 178 179 175 172 173 169 165 163 159 157 159 155 152 165 126 129 347 334 340 11 37 35 40 36 37
248 244 225 219 208 204 201 201 201 202 202 198 177 141 130 122 158 179 183 181 175 171 169 167 160 161 162 167 168 164 163 180 181 161 167 208 272 309 10 45 40 39 43
241 241 233 223 210 211 206 205 197 193 193 189 188 183 187 189 191 182 174 160 163 162 158 154 153 155 156 160 164 156 159 160 194 207 200 205 202 247 303 354 51 46 44
237 237 236 234 221 204 198 201 199 194 191 190 192 193 196 191 165 152 154 150 144 144 146 147 146 147 147 145 141 142 148 161 181 188 187 209 222 219 236 266 259 58 48
249 248 244 236 225 197 186 186 195 198 191 189 191 193 190 178 166 167 164 156 141 126 128 126 128 130 130 135 138 140 148 155 166 179 182 187 206 216 225 248 241 215 128
258 261 254 240 232 209 190 181 190 196 189 187 188 193 191 182 179 173 167 158 152 148 142 126 123 120 119 119 119 121 123 129 146 166 184 210 224 212 220 243 246 209 163
295 279 268 250 249 233 198 187 193 191 179 183 188 184 179 174 171 165 159 161 153 144 140 129 125 120 118 115 113 109 107 112 121 128 141 180 212 213 219 232 236 243 202
309 304 309 294 263 244 215 205 196 179 171 171 164 163 164 159 156 149 142 139 133 134 134 128 125 122 119 119 119 115 118 116 112 121 121 130 91 43 344 281 231 231 240
337 334 330 316 298 266 214 165 174 172 165 152 150 144 143 139 136 134 135 135 134 132 133 129 128 125 120 122 121 122 128 121 113 112 113 107 85 50 13 313 275 234 229
340 337 335 334 348 28 87 120 147 148 147 137 132 131 128 126 126 129 134 136 136 138 137 138 134 131 129 128 124 127 131 126 118 114 126 121 104 88 3 340 310 269 222
351 349 356 6 13 14 22 58 135 148 150 139 133 132 130 127 128 130 132 132 135 136 134 134 131 133 134 131 133 138 136 137 141 137 129 116 98 82 33 17 359 307 277
360 2 9 10 2 359 1 8 24 139 130 131 131 131 134 137 136 134 132 131 129 127 129 132 135 137 138 135 137 140 138 136 139 142 144 141 134 118 49 28 349 309 309
2 4 3 1 1 4 2 359 351 148 147 141 143 149 152 149 143 138 137 136 135 135 138 135 135 138 136 135 135 135 133 130 127 128 134 144 160 173 178 203 299 307 330
5 5 360 355 357 1 359 355 337 244 159 154 159 165 152 140 134 135 136 134 135 139 139 134 133 135 139 149 149 145 145 142 134 124 121 139 158 187 191 193 205 178 162
354 355 354 348 343 339 336 332 320 294 165 166 173 157 147 145 145 144 140 136 136 137 137 141 143 150 161 169 168 158 152 152 153 150 133 103 78 76 83 100 136 178 179
343 345 340 329 319 312 305 302 294 272 182 180 174 165 159 156 157 150 144 147 147 143 144 149 152 162 178 181 178 173 154 158 164 164 161 155 126 90 71 61 52 39 40
336 333 330 324 318 309 306 308 303 250 202 193 184 175 168 165 159 155 158 156 151 156 160 164 166 168 190 192 187 177 149 155 170 175 176 173 172 175 151 118 80 46 25
318 315 314 312 314 315 313 323 319 295 222 220 210 194 179 172 170 174 173 164 158 167 171 168 171 176 195 200 192 167 144 158 174 182 186 186 195 216 182 150 136 92 24
329 326 325 328 324 319 322 325 305 281 254 244 231 208 189 183 185 185 176 167 166 175 169 172 181 184 194 206 199 175 155 168 179 187 203 211 209 220 197 166 166 175 187
327 329 330 331 322 317 320 312 302 280 271 259 229 212 201 194 187 178 171 165 164 162 170 181 190 193 202 212 209 193 172 181 184 194 202 218 223 220 211 187 183 201 179
331 330 329 327 324 324 321 309 299 293 281 245 225 219 203 190 175 169 169 166 166 171 180 188 199 208 211 214 218 212 205 195 189 199 199 211 223 224 222 203 198 209 177
327 327 322 321 323 326 318 300 299 305 294 269 246 227 199 186 174 173 174 172 177 184 189 195 207 211 205 217 223 223 219 212 199 202 207 211 220 222 225 217 210 201 163
324 326 324 322 323 327 323 305 302 304 292 271 252 217 198 194 186 184 183 185 189 192 195 202 210 209 204 208 212 216 225 222 211 202 214 216 218 211 207 217 216 178 173
323 325 324 322 323 327 328 326 322 315 294 270 245 223 211 204 201 201 202 202 205 200 198 205 201 201 216 219 210 201 205 198 193 165 164 175 180 191 187 188 190 182 185
327 330 329 325 324 327 328 330 328 317 296 274 245 227 221 215 209 207 220 223 223 224 223 217 208 217 224 227 221 219 219 217 207 188 184 196 200 204 204 204 203 200 203